Date String (YYYY-MM-DD hh:mm:ss) UTC,Instrument flags,absolute air pressure of the measurement (hPa),sample flow rate (lpm),inlet stack bypass flow (lpm),air temperature of the measurement (°C),ambient temperature measured by the external sensor (°C),aerosol sample conditioner tube jacket temperature (°C),OPC LED temperature (°C),internal box temperature (°C),relative humidity of the measurement (%),span deviation,mass concentration of particles derived from Lorenz-Mie calculation of OPC scattering (μg/m³),mass concentration of particles derived from Lorenz-Mie calculation of OPC scattering (μg/m³),mass concentration of particles derived from Lorenz-Mie calculation of OPC scattering (μg/m³)
DateTimeUTC,F1_M11,P_M11,Q1_M11,Q2_M11,T1_M11,T2_M11,T3_M11,T4_M11,T5_M11,U1_M11,ZSPAN_M11,X2_M11,X0_M11,X1_M11
2023-08-22 01:00:00,SystemResetWarning,0832.5,5.02,000.00,027.8,024.0,000.0,035.9,029.2,20.2,0001.8,0007.45,0019.81,0005.59
2023-08-22 01:01:00,SystemResetWarning,0832.5,5.01,000.00,027.7,024.2,000.0,035.8,029.2,20.4,0002.2,0007.44,0018.63,0005.59
2023-08-22 01:02:00,SystemResetWarning,0832.6,4.99,000.00,027.7,024.6,000.0,035.9,029.2,20.1,0002.4,0007.48,0018.27,0005.60
2023-08-22 01:03:00,SystemResetWarning,0832.6,5.00,000.00,027.7,025.1,000.0,035.9,029.3,20.1,0002.3,0007.48,0018.45,0005.60
2023-08-22 01:04:00,SystemResetWarning,0832.5,5.00,000.00,027.7,025.6,000.0,036.0,029.4,20.1,0002.2,0007.49,0018.83,0005.58
2023-08-22 01:05:00,SystemResetWarning,0832.6,5.00,000.00,027.8,026.0,000.0,036.0,029.5,20.0,0001.8,0007.49,0018.99,0005.58
2023-08-22 01:06:00,SystemResetWarning,0832.6,4.99,000.00,027.9,026.3,000.0,036.0,029.6,20.0,0001.5,0007.44,0019.54,0005.58
2023-08-22 01:07:00,SystemResetWarning,0832.6,4.98,000.00,027.9,025.3,000.0,036.0,029.4,20.1,0001.4,0007.44,0021.85,0005.58
2023-08-22 01:08:00,SystemResetWarning,0832.6,5.01,000.00,027.8,024.1,000.0,035.9,029.2,20.2,0001.6,0007.46,0022.35,0005.59
2023-08-22 01:09:00,SystemResetWarning,0832.5,5.01,000.00,027.7,024.3,000.0,035.8,029.2,20.2,0001.0,0007.44,0022.19,0005.61
2023-08-22 01:10:00,SystemResetWarning,0832.6,4.99,000.00,027.7,024.7,000.0,035.9,029.2,20.5,0000.8,0007.49,0022.48,0005.64
2023-08-22 01:11:00,SystemResetWarning,0832.6,5.00,000.00,027.7,025.1,000.0,035.9,029.3,20.6,0001.1,0007.54,0022.86,0005.65
2023-08-22 01:12:00,SystemResetWarning,0832.6,5.00,000.00,027.7,025.6,000.0,036.0,029.4,20.5,0001.0,0007.49,0022.68,0005.67
2023-08-22 01:13:00,SystemResetWarning,0832.6,5.00,000.00,027.8,026.0,000.0,036.0,029.5,20.3,0001.4,0007.44,0022.75,0005.68
2023-08-22 01:14:00,SystemResetWarning,0832.6,4.98,000.00,027.8,025.7,000.0,036.0,029.5,20.7,0001.8,0007.45,0022.87,0005.67
2023-08-22 01:15:00,SystemResetWarning,0832.6,5.00,000.00,027.8,024.3,000.0,035.9,029.2,20.9,0001.5,0007.45,0023.10,0005.67
2023-08-22 01:16:00,SystemResetWarning,0832.6,5.01,000.00,027.7,024.0,000.0,035.8,029.1,21.0,0001.6,0007.47,0022.55,0005.66
2023-08-22 01:17:00,SystemResetWarning,0832.6,5.01,000.00,027.7,024.4,000.0,035.8,029.1,21.2,0001.6,0007.47,0021.97,0005.67
2023-08-22 01:18:00,SystemResetWarning,0832.7,5.00,000.00,027.6,024.8,000.0,035.9,029.1,21.3,0001.5,0007.40,0019.88,0005.67
2023-08-22 01:19:00,SystemResetWarning,0832.7,5.01,000.00,027.7,025.2,000.0,035.9,029.3,21.4,0001.4,0007.33,0019.08,0005.66
2023-08-22 01:20:00,SystemResetWarning,0832.7,4.99,000.00,027.7,025.7,000.0,035.9,029.4,21.4,0001.3,0007.34,0019.02,0005.65
2023-08-22 01:21:00,SystemResetWarning,0832.6,5.00,000.00,027.8,026.1,000.0,036.0,029.5,21.3,0001.3,0007.23,0017.65,0005.63
2023-08-22 01:22:00,SystemResetWarning,0832.7,5.00,000.00,027.8,025.8,000.0,035.9,029.5,21.0,0000.9,0007.18,0017.21,0005.62
2023-08-22 01:23:00,SystemResetWarning,0832.6,4.98,000.00,027.7,024.3,000.0,035.9,029.2,21.1,0000.8,0007.13,0017.10,0005.61
2023-08-22 01:24:00,SystemResetWarning,0832.7,5.02,000.00,027.7,023.9,000.0,035.8,029.1,21.2,0000.4,0007.17,0017.16,0005.61
2023-08-22 01:25:00,SystemResetWarning,0832.6,5.00,000.00,027.6,024.3,000.0,035.8,029.1,21.3,-000.1,0007.19,0017.15,0005.62
2023-08-22 01:26:00,SystemResetWarning,0832.7,5.00,000.00,027.6,024.7,000.0,035.9,029.1,21.3,0000.1,0007.16,0018.06,0005.63
2023-08-22 01:27:00,SystemResetWarning,0832.7,5.00,000.00,027.6,025.2,000.0,035.9,029.2,21.2,0000.4,0007.16,0017.53,0005.63
2023-08-22 01:28:00,SystemResetWarning,0832.8,5.00,000.00,027.7,025.6,000.0,035.9,029.4,21.2,0000.3,0007.17,0016.57,0005.64
2023-08-22 01:29:00,SystemResetWarning,0832.8,4.99,000.00,027.7,026.0,000.0,036.0,029.5,20.9,-000.1,0007.25,0017.08,0005.63
2023-08-22 01:30:00,SystemResetWarning,0832.8,4.99,000.00,027.8,025.7,000.0,035.9,029.4,20.7,-000.3,0007.35,0017.57,0005.62
2023-08-22 01:31:00,SystemResetWarning,0832.7,5.00,000.00,027.7,024.2,000.0,035.9,029.2,20.9,-000.3,0007.36,0019.62,0005.62
2023-08-22 01:32:00,SystemResetWarning,0832.8,5.02,000.00,027.6,023.8,000.0,035.8,029.0,21.1,0000.3,0007.50,0020.33,0005.63
2023-08-22 01:33:00,SystemResetWarning,0832.7,5.00,000.00,027.6,024.1,000.0,035.8,028.9,20.9,0000.5,0007.53,0020.41,0005.65
2023-08-22 01:34:00,SystemResetWarning,0832.8,4.99,000.00,027.5,024.5,000.0,035.8,029.0,20.7,0000.5,0007.55,0020.85,0005.67
2023-08-22 01:35:00,SystemResetWarning,0832.8,5.00,000.00,027.6,025.0,000.0,035.8,029.1,20.7,0000.6,0007.59,0021.27,0005.68
2023-08-22 01:36:00,SystemResetWarning,0832.8,5.00,000.00,027.6,025.5,000.0,035.9,029.3,20.8,0000.7,0007.56,0021.34,0005.68
2023-08-22 01:37:00,SystemResetWarning,0832.8,5.01,000.00,027.7,025.9,000.0,035.9,029.4,20.9,0001.2,0007.53,0019.25,0005.68
2023-08-22 01:38:00,SystemResetWarning,0832.8,5.00,000.00,027.7,026.2,000.0,035.9,029.5,20.9,0001.1,0007.51,0019.42,0005.69
2023-08-22 01:39:00,SystemResetWarning,0832.8,4.98,000.00,027.7,025.1,000.0,035.9,029.3,21.0,0001.0,0007.54,0020.17,0005.69
2023-08-22 01:40:00,SystemResetWarning,0832.8,5.00,000.00,027.7,023.9,000.0,035.8,029.1,20.9,0001.3,0007.50,0020.21,0005.69
2023-08-22 01:41:00,SystemResetWarning,0832.8,5.01,000.00,027.6,024.1,000.0,035.7,029.1,21.0,0001.7,0007.49,0020.28,0005.71
2023-08-22 01:42:00,SystemResetWarning,0832.9,5.00,000.00,027.6,024.5,000.0,035.8,029.0,21.2,0002.0,0007.48,0019.13,0005.72
2023-08-22 01:43:00,SystemResetWarning,0833.1,5.00,000.00,027.6,024.9,000.0,035.8,029.1,21.1,0002.2,0007.39,0018.11,0005.74
2023-08-22 01:44:00,SystemResetWarning,0833.2,5.01,000.00,027.6,025.4,000.0,035.8,029.3,21.2,0002.0,0007.39,0018.18,0005.74
2023-08-22 01:45:00,SystemResetWarning,0833.2,5.00,000.00,027.7,025.8,000.0,035.9,029.4,21.1,0002.1,0007.39,0018.55,0005.75
2023-08-22 01:46:00,SystemResetWarning,0832.9,4.99,000.00,027.7,026.2,000.0,035.9,029.5,21.1,0001.9,0007.37,0018.78,0005.76
2023-08-22 01:47:00,SystemResetWarning,0832.9,4.99,000.00,027.8,025.9,000.0,035.9,029.5,21.2,0002.2,0007.39,0019.07,0005.76
2023-08-22 01:48:00,SystemResetWarning,0833.2,5.00,000.00,027.7,024.4,000.0,035.8,029.2,21.2,0002.2,0007.45,0019.39,0005.76
2023-08-22 01:49:00,SystemResetWarning,0833.1,5.02,000.00,027.6,023.9,000.0,035.8,029.1,21.2,0002.0,0007.43,0019.85,0005.76
2023-08-22 01:50:00,SystemResetWarning,0833.0,5.00,000.00,027.6,024.3,000.0,035.8,029.0,21.2,0001.8,0007.44,0019.22,0005.76
2023-08-22 01:51:00,SystemResetWarning,0832.9,5.00,000.00,027.6,024.7,000.0,035.8,029.0,21.3,0001.6,0007.50,0019.14,0005.76
2023-08-22 01:52:00,SystemResetWarning,0833.0,5.00,000.00,027.6,025.1,000.0,035.8,029.2,21.2,0001.9,0007.51,0020.30,0005.76
2023-08-22 01:53:00,SystemResetWarning,0833.0,4.99,000.00,027.6,025.6,000.0,035.9,029.3,21.2,0001.7,0007.49,0021.10,0005.76
2023-08-22 01:54:00,SystemResetWarning,0833.1,5.01,000.00,027.7,025.9,000.0,035.9,029.4,21.2,0001.5,0007.51,0021.56,0005.76
2023-08-22 01:55:00,SystemResetWarning,0833.1,5.00,000.00,027.7,026.2,000.0,035.9,029.5,21.2,0001.6,0007.57,0021.76,0005.77
2023-08-22 01:56:00,SystemResetWarning,0833.0,4.99,000.00,027.7,025.2,000.0,035.9,029.3,21.2,0001.3,0007.60,0022.05,0005.76
2023-08-22 01:57:00,SystemResetWarning,0833.1,5.01,000.00,027.6,023.9,000.0,035.8,029.0,21.4,0001.2,0007.65,0022.57,0005.74
2023-08-22 01:58:00,SystemResetWarning,0833.0,5.01,000.00,027.6,024.0,000.0,035.7,029.0,21.4,0001.6,0007.66,0023.26,0005.73
2023-08-22 01:59:00,SystemResetWarning,0833.0,5.01,000.00,027.5,024.4,000.0,035.8,028.9,21.6,0001.0,0007.65,0023.88,0005.75
